Snowbird, USA 16 day weather forecast

Slopes altitude range 2365 m - 3350m

Number of lifts: 11 Pistes: 103km

In some cases the lift and piste totals shown are for the ski domain (e.g. Three Valleys) rather than individual resort (e.g. Courchevel)

Overview

The 16 day weather forecast is fully updated 4 times every day.

    • Wed 26 JUN 2019
    • Wed 26
    • 8C 11C
    • Thu 27 JUN 2019
    • Thu 27
    • 8C 11C
    • Fri 28 JUN 2019
    • Fri 28
    • 8C 11C
    • Sat 29 JUN 2019
    • Sat 29
    • 8C 12C
    • Sun 30 JUN 2019
    • Sun 30
    • 9C 13C
    • Mon 01 JUL 2019
    • Mon 01
    • 9C 12C
    • Tue 02 JUL 2019
    • Tue 02
    • 9C 12C
    • Wed 03 JUL 2019
    • Wed 03
    • 8C 11C
    • Thu 04 JUL 2019
    • Thu 04
    • 10C 12C
    • Fri 05 JUL 2019
    • Fri 05
    • 11C 11C
    • Sat 06 JUL 2019
    • Sat 06
    • 10C 12C
    • Sun 07 JUL 2019
    • Sun 07
    • 10C 12C
    • Mon 08 JUL 2019
    • Mon 08
    • 12C 14C
    • Tue 09 JUL 2019
    • Tue 09
    • 14C 15C
    • Wed 10 JUL 2019
    • Wed 10
    • 10C 13C
    • Thu 11 JUL 2019
    • Thu 11
    • 12C 14C

Date:

Time Type 0°C level Temp Chill Snow Cloud Speed Gust Dir Press
3:00 4486m 13°C 13_4 0cm 65% 4mph 5mph 1008mB
6:00 4446m 11°C 11_4 0cm 81% 4mph 5mph 1010mB
9:00 4334m 9°C 9_3 0cm 61% 3mph 4mph 1010mB
12:00 4266m 11°C 11_3 0cm 31% 3mph 4mph 1011mB
15:00 4301m 17°C 17_6 0cm 60% 6mph 10mph 1012mB
18:00 4300m 21°C 21_8 0cm 29% 8mph 16mph 1010mB
21:00 4328m 21°C 21_10 0cm 5% 10mph 18mph 1008mB
0:00 4421m 21°C 21_7 0cm 43% 7mph 22mph 1008mB
3:00 4412m 13°C 13_5 0cm 13% 5mph 7mph 1009mB
6:00 4391m 11°C 11_5 0cm 20% 5mph 6mph 1011mB
9:00 4285m 9°C 9_3 0cm 30% 3mph 5mph 1012mB
12:00 4246m 11°C 11_2 0cm 43% 2mph 4mph 1013mB
15:00 4234m 16°C 16_3 0cm 93% 3mph 6mph 1013mB
18:00 4220m 21°C 21_10 0cm 64% 10mph 18mph 1011mB
21:00 4382m 21°C 21_11 0cm 35% 11mph 21mph 1010mB
0:00 4504m 21°C 21_10 0cm 27% 10mph 22mph 1008mB
3:00 4485m 13°C 13_5 0cm 0% 5mph 6mph 1011mB
6:00 4492m 11°C 11_4 0cm 0% 4mph 5mph 1012mB
9:00 4633m 9°C 9_3 0cm 0% 3mph 4mph 1013mB
12:00 4641m 11°C 11_2 0cm 14% 2mph 4mph 1014mB
15:00 4648m 17°C 17_3 0cm 25% 3mph 4mph 1014mB
18:00 4689m 23°C 23_10 0cm 13% 10mph 18mph 1013mB
21:00 4543m 23°C 23_11 0cm 0% 11mph 21mph 1011mB
0:00 4660m 23°C 23_8 0cm 0% 8mph 19mph 1008mB
3:00 4665m 15°C 15_5 0cm 0% 5mph 6mph 1010mB
6:00 4641m 12°C 12_3 0cm 0% 3mph 5mph 1013mB
9:00 4564m 10°C 10_4 0cm 0% 4mph 5mph 1015mB
12:00 4620m 12°C 12_3 0cm 0% 3mph 4mph 1016mB
15:00 4678m 18°C 18_3 0cm 0% 3mph 6mph 1017mB
18:00 4565m 23°C 23_11 0cm 0% 11mph 21mph 1015mB
21:00 4419m 22°C 22_9 0cm 52% 9mph 26mph 1013mB
0:00 4264m 22°C 22_7 0cm 64% 7mph 18mph 1013mB
3:00 4380m 14°C 14_2 0cm 100% 2mph 2mph 1015mB
6:00 4280m 10°C 10_1 0cm 87% 1mph 2mph 1017mB
9:00 4269m 9°C 9_1 0cm 100% 1mph 3mph 1016mB
12:00 4082m 13°C 13_4 0cm 100% 4mph 5mph 1016mB
15:00 4204m 14°C 14_3 0cm 84% 3mph 6mph 1017mB
18:00 4346m 19°C 19_5 0cm 85% 5mph 7mph 1016mB
21:00 4438m 17°C 17_7 0cm 47% 7mph 9mph 1013mB
0:00 4519m 17°C 17_6 0cm 30% 6mph 11mph 1011mB
3:00 4535m 13°C 13_2 0cm 14% 2mph 4mph 1011mB
6:00 4460m 10°C 10_1 0cm 16% 1mph 3mph 1013mB
9:00 4456m 10°C 10_2 0cm 77% 2mph 4mph 1013mB
12:00 4348m 12°C 12_2 0cm 39% 2mph 3mph 1013mB
15:00 4299m 17°C 17_1 0cm 2% 1mph 3mph 1013mB
18:00 4310m 22°C 22_10 0cm 9% 10mph 14mph 1011mB
21:00 4462m 22°C 22_8 0cm 42% 8mph 16mph 1009mB
0:00 4565m 22°C 22_8 0cm 35% 8mph 18mph 1007mB
3:00 4625m 14°C 14_2 0cm 18% 2mph 4mph 1007mB
6:00 4566m 12°C 12_2 0cm 10% 2mph 3mph 1010mB
9:00 4471m 10°C 10_1 0cm 0% 1mph 2mph 1011mB
12:00 4414m 12°C 12_3 0cm 0% 3mph 3mph 1012mB
15:00 4386m 16°C 16_2 0cm 0% 2mph 3mph 1012mB
18:00 4311m 21°C 21_6 0cm 0% 6mph 9mph 1011mB
21:00 4334m 21°C 21_9 0cm 0% 9mph 11mph 1008mB
0:00 4351m 21°C 21_5 0cm 9% 5mph 10mph 1007mB
3:00 4419m 14°C 14_4 0cm 15% 4mph 5mph 1008mB
6:00 4516m 11°C 11_3 0cm 7% 3mph 4mph 1009mB
9:00 4495m 9°C 9_2 0cm 0% 2mph 3mph 1009mB
12:00 4448m 11°C 11_1 0cm 0% 1mph 2mph 1010mB
15:00 4444m 16°C 16_4 0cm 1% 4mph 5mph 1010mB
18:00 4402m 20°C 20_12 0cm 2% 12mph 17mph 1009mB
21:00 4428m 20°C 20_15 0cm 55% 15mph 18mph 1007mB
0:00 4457m 20°C 20_12 0cm 70% 12mph 19mph 1006mB
3:00 4559m 13°C 13_2 0cm 26% 2mph 4mph 1008mB
6:00 4586m 10°C 10_7 0cm 26% 7mph 7mph 1010mB
9:00 4469m 10°C 10_7 0cm 96% 7mph 7mph 1010mB
12:00 4427m 12°C 12_9 0cm 98% 9mph 9mph 1011mB
15:00 4423m 18°C 18_8 0cm 82% 8mph 15mph 1012mB
18:00 4389m 21°C 21_14 0cm 47% 14mph 18mph 1011mB
21:00 4482m 21°C 21_15 0cm 13% 15mph 19mph 1010mB
0:00 4562m 21°C 21_12 0cm 27% 12mph 19mph 1010mB
3:00 4671m 14°C 14_7 0cm 0% 7mph 7mph 1011mB
6:00 4691m 11°C 11_7 0cm 0% 7mph 7mph 1013mB
9:00 4648m 11°C 11_7 0cm 0% 7mph 7mph 1013mB
12:00 4556m 11°C 11_8 0cm 18% 8mph 8mph 1014mB
15:00 4542m 19°C 19_4 0cm 63% 4mph 5mph 1015mB
18:00 4559m 23°C 23_12 0cm 31% 12mph 18mph 1013mB
21:00 4673m 23°C 23_17 0cm 0% 17mph 20mph 1012mB
0:00 4730m 22°C 22_13 0cm 0% 13mph 19mph 1010mB
Afternoon 0mm 0 4600m 12°C 12_6 0cm 2% 6mph 6mph 1016mB
Morning 0mm 0 4676m 23°C 23_11 0cm 0% 11mph 11mph 1012mB
Afternoon 0mm 0 4664m 12°C 12_6 0cm 0% 6mph 6mph 1017mB
Morning 0.0208333mm 0.0625 4682m 22°C 22_2 0cm 26% 2mph 8mph 1012mB
Afternoon 0mm 0 4854m 14°C 14_7 0cm 0% 7mph 8mph 1015mB
Morning 0mm 0 4859m 20°C 20_12 0cm 91% 12mph 12mph 1010mB
Afternoon 0mm 0 4783m 15°C 15_9 0cm 99% 9mph 9mph 1014mB
Morning 0.541667mm 0.3125 4522m 12°C 12_4 0cm 100% 4mph 5mph 1014mB
Afternoon 0mm 0 4623m 13°C 13_8 0cm 79% 8mph 8mph 1015mB
Morning 0.4375mm 0.875 4732m 23°C 23_9 0cm 100% 9mph 10mph 1012mB
Afternoon 0.0208333mm 0.0625 4632m 14°C 14_7 0cm 99% 7mph 8mph 1017mB
Morning 0.770833mm 1.0625 4736m 13°C 13_11 0cm 100% 11mph 15mph 1015mB

16 day outlook at a glance

Forecast issued: 6/26/2019 8:10:21 AM

Chat

Your comments and questions. In a resort? Let us know what it's like!


Characters left 250

For terms and conditions see Readers Comments on the Cookie and privacy policy page.